[[{"header":{"parameterUnit":"m.s-1","parameterCategory":2,"la1":30.2991,"la2":30.254,"lo1":-89.0895,"lo2":-89.0444,"dy":0.0017,"dx":0.0017,"nx":28,"ny":28,"refTime":"2025-03-31T09:00:00:Z","depth":"0","parameterNumber":2,"parameterNumberName":"U-component_of_CURRENTS"},"data":[0,0,0,0,0,0,0,0,0,0,0,0,0,0,0,0,0,0,0,0,0,0,0,0,0,0,0,0,0,0,0,0,0,0,0,0,0,0,0,0,0,0,0,0,0,0,0,0,0,0,0,0,0,0,0,0,0,0,0.2983,0.2984,0,0.3001,0.3001,0.3001,0.2978,0.2978,0.2977,0.2977,0.2964,0.2964,0.2964,0,0,0,0,0,0,0,0,0,0,0,0,0,0.2955,0.2955,0.2983,0.2984,0.2984,0.3001,0.3001,0.3001,0.2978,0.2978,0.2977,0.2976,0.2964,0.2964,0.2964,0,0,0,0,0,0,0,0,0,0,0,0,0,0.2966,0.2955,0.2983,0.2977,0.2977,0.3001,0.3001,0.3001,0.2978,0.2978,0.2977,0.2976,0.2964,0.2964,0.2964,0.2981,0,0,0.2965,0.2965,0,0,0,0,0,0,0,0,0.2965,0.2967,0.2978,0.2978,0.2978,0.2989,0.2986,0.2994,0.2979,0.2975,0.2977,0.2976,0.2972,0.2972,0.2973,0.2981,0.298,0.2965,0.2965,0.2965,0.2965,0,0,0,0,0,0,0,0.2965,0.2966,0.2987,0.2979,0.2979,0.2982,0.2983,0.2987,0.2975,0.2975,0.2974,0.2981,0.2971,0.2972,0.2972,0.298,0.2965,0.2965,0.2965,0.2965,0.3057,0.306,0,0,0,0,0,0,0.2968,0.2965,0.2987,0.2988,0.2973,0.2984,0.2984,0.2984,0.2975,0.2974,0.2982,0.298,0.2972,0.2972,0.2972,0.3035,0.2965,0.2965,0.2965,0.3055,0.3058,0.306,0,0,0,0,0,0,0.2968,0.297,0.2986,0.298,0.2982,0.2985,0.2985,0.2985,0.2987,0.2982,0.2979,0.2985,0.2972,0.2971,0.2996,0.3033,0.2965,0.2966,0.3052,0.3056,0.3059,0.3134,0,0,0,0,0,0,0.2967,0.2969,0.2976,0.298,0.2983,0.3005,0.2987,0.2986,0.2994,0.2991,0.2984,0.2981,0.2971,0.2996,0.2996,0.3032,0.2966,0.305,0.3054,0.3058,0.3129,0.314,0.3149,0,0,0,0,0,0.2965,0.2982,0.2975,0.2979,0.2989,0.3006,0.3008,0.3005,0.2995,0.3002,0.3008,0.2982,0.3024,0.2998,0.2997,0.3034,0.3047,0.3053,0.3058,0.3124,0.3137,0.3149,0,0,0,0,0,0,0.2977,0.2982,0.2974,0.2992,0.2999,0.3003,0.3019,0.301,0.3019,0.302,0.3006,0.3006,0.3043,0.3032,0.3004,0.3077,0.3034,0.3039,0.3084,0.3097,0.3107,0.3115,0.2966,0,0,0,0,0,0.2983,0.2993,0.2996,0.3011,0.3017,0.3017,0.3025,0.302,0.3029,0.3031,0.3027,0.3037,0.3066,0.3074,0.3087,0.3121,0.3134,0.3148,0.3159,0.3167,0.3177,0.3217,0.3231,0.3078,0.3078,0.3077,0,0,0.2993,0.2998,0.3004,0.3015,0.3021,0.3037,0.3019,0.3036,0.3055,0.303,0.3057,0.3068,0.3084,0.3128,0.3144,0.3122,0.3227,0.3174,0.3181,0.3186,0.3224,0.3239,0.3252,0.3081,0.308,0.308,0,0,0.3019,0.3023,0.3036,0.3044,0.3057,0.3061,0.3066,0.3071,0.3081,0.311,0.311,0.3147,0.3167,0.3196,0.3213,0.3288,0.3279,0.3293,0.335,0.339,0.3402,0.3413,0.3486,0.3503,0.3298,0.3299,0.3299,0,0.303,0.3043,0.3045,0.306,0.3072,0.3072,0.3089,0.3108,0.312,0.3138,0.3128,0.3197,0.3205,0.328,0.3316,0.3311,0.334,0.3299,0.3402,0.3413,0.3423,0.3494,0.3512,0.3303,0.3302,0.3302,0.3301,0,0.3057,0.3071,0.3086,0.31,0.3115,0.3134,0.3154,0.3172,0.3183,0.3199,0.3264,0.3293,0.3328,0.3354,0.3362,0.3448,0.3451,0.3408,0.3366,0.3443,0.3514,0.3531,0.3309,0.3307,0.3306,0.3305,0,0,0.3063,0.3097,0.3099,0.3113,0.3135,0.315,0.3192,0.3228,0.3269,0.3294,0.3357,0.342,0.3427,0.3451,0.347,0.3524,0.3638,0.3506,0.3506,0.3572,0.376,0.3706,0.3719,0.3608,0.361,0.3612,0.3794,0,0.3079,0.3112,0.3126,0.3162,0.3179,0.3197,0.3244,0.3279,0.3317,0.3381,0.3429,0.3502,0.3469,0.3517,0.3554,0.3617,0.3681,0.3595,0.3681,0.3685,0.3621,0.3735,0.3592,0.3735,0.381,0.3813,0.3815,0,0.3084,0.311,0.3141,0.3194,0.3207,0.3233,0.3298,0.3343,0.3428,0.3468,0.3524,0.3565,0.3664,0.3627,0.3745,0.3691,0.3735,0.378,0.3786,0.3716,0.3661,0.3665,0.3763,0.3678,0.384,0.3838,0.3837,0,0.3064,0.3115,0.3142,0.3155,0.3219,0.3246,0.3288,0.3361,0.3403,0.3536,0.3588,0.3679,0.3744,0.3802,0.3864,0.3822,0.4001,0.394,0.3942,0.394,0.3825,0.3807,0.3837,0.4035,0.4035,0.4034,0.4034,0,0.3056,0.3079,0.3138,0.3152,0.3196,0.3251,0.3309,0.3371,0.3468,0.3539,0.3629,0.3709,0.3789,0.3879,0.3923,0.3989,0.4034,0.3989,0.3987,0.3851,0.3834,0.3755,0.372,0.4041,0.404,0.4038,0.4037,0,0.3008,0.3052,0.3081,0.3155,0.3178,0.3206,0.3283,0.3338,0.3448,0.3549,0.3604,0.3745,0.3883,0.3962,0.4097,0.4059,0.4039,0.4156,0.4012,0.3988,0.3861,0.3835,0.3733,0.3622,0.4192,0.4192,0.4192,0,0.2975,0.299,0.3054,0.3074,0.3102,0.3154,0.3196,0.3303,0.3363,0.3563,0.3618,0.3798,0.3895,0.407,0.4088,0.4177,0.4061,0.4083,0.3958,0.3869,0.384,0.3672,0.3573,0.3867,0.3864,0.3862,0.386,0,0.2912,0.2939,0.297,0.3008,0.3047,0.3078,0.3155,0.319,0.3346,0.3448,0.3597,0.3706,0.3887,0.3912,0.4029,0.4051,0.3879,0.4036,0.3972,0.3625,0.3416,0.3301,0.3765,0.3839,0.3841,0.3843,0.3844,0.3845,0.2853,0.2852,0.2898,0.2924,0.2969,0.2995,0.2989,0.3096,0.3173,0.3306,0.3483,0.3587,0.3728,0.3859,0.3862,0.3776,0.3744,0.3677,0.3676,0.3532,0.3333,0.377,0.3804,0.3806,0.3807,0.3808,0.381,0,0.2749,0.2776,0.2813,0.2837,0.2842,0.2894,0.295,0.2932,0.2984,0.3164,0.3271,0.3386,0.3459,0.3549,0.3558,0.3437,0.3253,0.3364,0.3103,0.304,0.3473,0.3366,0.3267,0.3267,0.3267,0.3267,0.3267,0.3267,0.2697,0.2689,0.2713,0.2692,0.2712,0.2666,0.2663,0.2673,0.2751,0.2818,0.2882,0.3004,0.3222,0.3381,0.3303,0.3211,0.296,0.2835,0.283,0.3162,0.319,0.3216,0.3106,0.2954,0.2954,0.2237,0.2232,0.2229]},{"header":{"parameterUnit":"m.s-1","parameterCategory":2,"la1":30.2991,"la2":30.254,"lo1":-89.0895,"lo2":-89.0444,"dy":0.0017,"dx":0.0017,"nx":28,"ny":28,"refTime":"2025-03-31T09:00:00:Z","depth":"0","parameterNumber":3,"parameterNumberName":"V-component_of_CURRENTS"},"data":[0,0,0,0,0,0,0,0,0,0,0,0,0,0,0,0,0,0,0,0,0,0,0,0,0,0,0,0,0,0,0,0,0,0,0,0,0,0,0,0,0,0,0,0,0,0,0,0,0,0,0,0,0,0,0,0,0,0,0.0008,0.0007,0,-0.0047,-0.0048,-0.0049,-0.0082,-0.0082,-0.0082,-0.0082,-0.0172,-0.0174,-0.0177,0,0,0,0,0,0,0,0,0,0,0,0,0,0.0046,0.0045,0.0008,0.0007,0.0007,-0.0047,-0.0048,-0.0049,-0.0082,-0.0082,-0.0082,-0.0082,-0.0171,-0.0174,-0.0177,0,0,0,0,0,0,0,0,0,0,0,0,0,0.0013,0.0045,0.0008,-0.0016,-0.0018,-0.0047,-0.0048,-0.0049,-0.0082,-0.0082,-0.0082,-0.0082,-0.017,-0.0174,-0.0177,-0.0198,0,0,-0.0188,-0.0189,0,0,0,0,0,0,0,0,0.0015,0.0011,-0.0012,-0.0014,-0.0017,-0.0057,-0.0067,-0.01,-0.0082,-0.0059,-0.0082,-0.0082,-0.0136,-0.0142,-0.0154,-0.0202,-0.0206,-0.0188,-0.019,-0.0192,-0.0193,0,0,0,0,0,0,0,0.0017,0.0013,-0.0015,-0.0012,-0.0015,-0.0036,-0.0041,-0.0074,-0.0098,-0.0061,-0.0063,-0.0067,-0.0138,-0.015,-0.0156,-0.0207,-0.0188,-0.0191,-0.0193,-0.0195,-0.0302,-0.0303,0,0,0,0,0,0,0.0029,0.0016,-0.0014,-0.0017,0.0001,-0.0036,-0.0042,-0.0045,-0.0097,-0.0104,-0.0067,-0.0069,-0.0144,-0.0152,-0.0159,-0.0203,-0.0192,-0.0195,-0.0197,-0.0302,-0.0302,-0.0303,0,0,0,0,0,0,0.003,0.0027,-0.0011,-0.0001,-0.0007,-0.0037,-0.004,-0.0046,-0.0058,-0.0101,-0.0109,-0.0073,-0.0145,-0.0155,-0.019,-0.0206,-0.0197,-0.02,-0.0301,-0.0302,-0.0303,-0.0279,0,0,0,0,0,0,0.0031,0.0027,0.0028,-0.0,-0.0007,-0.0027,-0.004,-0.0047,-0.006,-0.0062,-0.0109,-0.0117,-0.0145,-0.0185,-0.0194,-0.021,-0.0203,-0.03,-0.0301,-0.0303,-0.0279,-0.0279,-0.0279,0,0,0,0,0,0.0033,0.0034,0.0028,0.0024,-0.0005,-0.0027,-0.0033,-0.0055,-0.006,-0.0066,-0.0098,-0.0116,-0.0201,-0.0188,-0.0199,-0.0216,-0.0299,-0.0301,-0.0302,-0.0279,-0.0279,-0.0279,0,0,0,0,0,0,0.0049,0.003,0.0023,0.0018,-0.0002,-0.0032,-0.0039,-0.0052,-0.0081,-0.0084,-0.0122,-0.0133,-0.0173,-0.0197,-0.0182,-0.0253,-0.0254,-0.0258,-0.0233,-0.0233,-0.0234,-0.019,-0.0206,0,0,0,0,0,0.0054,0.0051,0.0027,0.0023,0.0016,-0.001,-0.0021,-0.0035,-0.0063,-0.0076,-0.0108,-0.0147,-0.0188,-0.021,-0.0247,-0.0282,-0.0265,-0.0302,-0.0302,-0.0302,-0.0275,-0.0277,-0.0274,-0.0309,-0.0309,-0.0309,0,0,0.006,0.0049,0.0047,0.0027,0.0011,0.0007,-0.0017,-0.0031,-0.0038,-0.0082,-0.0103,-0.0147,-0.0197,-0.0239,-0.0259,-0.026,-0.0282,-0.0305,-0.0304,-0.0276,-0.0278,-0.0275,-0.0271,-0.031,-0.031,-0.031,0,0,0.0077,0.0061,0.0068,0.0054,0.0035,0.0018,0.0017,-0.0013,-0.0031,-0.0057,-0.0096,-0.0143,-0.0197,-0.024,-0.0268,-0.0291,-0.0282,-0.0311,-0.0279,-0.0283,-0.0279,-0.0275,-0.0232,-0.0225,-0.0313,-0.0313,-0.0313,0,0.0089,0.0095,0.0065,0.0069,0.0069,0.0028,0.0041,0.001,-0.0028,-0.0031,-0.0059,-0.0134,-0.0196,-0.0235,-0.0257,-0.0291,-0.0267,-0.0273,-0.0279,-0.0276,-0.0273,-0.0229,-0.0221,-0.0312,-0.0312,-0.0312,-0.0312,0,0.0113,0.0118,0.0119,0.0115,0.0106,0.0107,0.0073,0.0058,0.0032,0.001,-0.0028,-0.011,-0.0146,-0.0195,-0.0239,-0.0258,-0.0237,-0.0276,-0.027,-0.0267,-0.0222,-0.0214,-0.0311,-0.0311,-0.0311,-0.0311,0,0,0.015,0.0142,0.0145,0.0164,0.0136,0.014,0.0124,0.0114,0.0133,0.0062,0.0088,-0.0039,-0.007,-0.0103,-0.0173,-0.0199,-0.0184,-0.0225,-0.0226,-0.0164,-0.0141,-0.0145,-0.0136,-0.0218,-0.0217,-0.0217,-0.0111,0,0.0187,0.0219,0.0198,0.0232,0.0251,0.0216,0.0216,0.0197,0.0174,0.0183,0.0092,0.0078,-0.004,-0.0051,-0.0103,-0.0154,-0.0165,-0.0205,-0.0167,-0.0165,-0.0155,-0.0129,-0.0145,-0.0055,-0.0104,-0.0103,-0.0102,0,0.023,0.0248,0.0295,0.0318,0.0324,0.0337,0.0363,0.0356,0.0338,0.0323,0.0284,0.0231,0.017,0.0078,0.0001,-0.0011,-0.0068,-0.0114,-0.0112,-0.0112,-0.0155,-0.0072,-0.0039,-0.0211,-0.009,-0.0091,-0.0092,0,0.0301,0.0322,0.0371,0.0376,0.0387,0.0412,0.042,0.0412,0.0439,0.0432,0.0472,0.0377,0.0367,0.0268,0.0138,0.0086,0.0094,0.0008,-0.0037,-0.0035,-0.0039,-0.004,-0.0152,-0.0021,-0.0021,-0.0022,-0.0022,0,0.0361,0.0401,0.0415,0.0446,0.0516,0.0497,0.0573,0.0563,0.0592,0.0666,0.056,0.0614,0.0414,0.0379,0.0237,0.0147,0.017,0.0002,-0.001,-0.0031,-0.0033,-0.0176,-0.028,-0.0018,-0.0018,-0.0019,-0.002,0,0.0436,0.0441,0.0502,0.0535,0.0557,0.0612,0.068,0.0737,0.0749,0.0854,0.0868,0.0817,0.077,0.0597,0.0465,0.03,0.0105,0.016,0.0171,0.0157,-0.0087,-0.0188,-0.0271,-0.0351,0.013,0.0131,0.0131,0,0.0478,0.052,0.0581,0.0633,0.0656,0.0733,0.0795,0.0816,0.0891,0.0996,0.107,0.1056,0.107,0.0886,0.0594,0.0391,0.0184,0.0224,0.0083,-0.0075,-0.0196,-0.0283,-0.0352,0.0104,0.0104,0.0104,0.0105,0,0.0563,0.0584,0.0634,0.0737,0.0815,0.0902,0.0999,0.1083,0.1145,0.1252,0.1393,0.1427,0.1243,0.101,0.0694,0.0519,0.0082,0.022,0.0042,-0.0228,-0.0311,-0.0402,0.0039,0.0106,0.0106,0.0106,0.0106,0.0106,0.0629,0.0679,0.0748,0.0845,0.0937,0.1061,0.1155,0.1279,0.1432,0.161,0.1632,0.1725,0.136,0.0921,0.0653,0.0127,0.0107,-0.0067,-0.0166,-0.023,-0.0356,0.0112,0.0157,0.0157,0.0158,0.0158,0.0158,0,0.0698,0.0756,0.0853,0.0968,0.1079,0.1112,0.1283,0.1393,0.1596,0.1779,0.1908,0.1798,0.1345,0.0865,0.0158,-0.0208,-0.0372,-0.0409,-0.0562,-0.061,-0.0196,-0.0251,-0.0274,-0.0274,-0.0274,-0.0274,-0.0274,-0.0273,0.0742,0.0835,0.0878,0.1063,0.1154,0.1311,0.1412,0.1588,0.1742,0.1966,0.2044,0.2073,0.1701,0.0436,-0.0403,-0.0587,-0.0876,-0.0925,-0.1046,-0.0809,-0.0786,-0.0765,-0.0842,-0.0989,-0.099,-0.1437,-0.1442,-0.1445]}],[{"header":{"parameterUnit":"m.s-1","parameterCategory":2,"la1":30.2991,"la2":30.254,"lo1":-89.0895,"lo2":-89.0444,"dy":0.0017,"dx":0.0017,"nx":28,"ny":28,"refTime":"2025-03-31T09:00:00:Z","depth":"2","parameterNumber":2,"parameterNumberName":"U-component_of_CURRENTS"},"data":[0,0,0,0,0,0,0,0,0,0,0,0,0,0,0,0,0,0,0,0,0,0,0,0,0,0,0,0,0,0,0,0,0,0,0,0,0,0,0,0,0,0,0,0,0,0,0,0,0,0,0,0,0,0,0,0,0,0,0.2222,0.2222,0,0.2249,0.2249,0.2249,0.2256,0.2256,0.2257,0.2257,0.2275,0.2276,0.2276,0,0,0,0,0,0,0,0,0,0,0,0,0,0.2174,0.2175,0.2221,0.2222,0.2223,0.2249,0.2249,0.2249,0.2256,0.2256,0.2257,0.2257,0.2275,0.2276,0.2276,0,0,0,0,0,0,0,0,0,0,0,0,0,0.2194,0.2175,0.2221,0.2232,0.2233,0.2249,0.2249,0.2249,0.2256,0.2256,0.2257,0.2257,0.2275,0.2276,0.2276,0.2275,0,0,0.2278,0.2278,0,0,0,0,0,0,0,0,0.2193,0.2195,0.223,0.2231,0.2233,0.2252,0.2239,0.2259,0.2256,0.2244,0.2257,0.2257,0.2269,0.227,0.227,0.2276,0.2277,0.2278,0.2278,0.2279,0.2279,0,0,0,0,0,0,0,0.2192,0.2194,0.2229,0.2231,0.2233,0.2235,0.2238,0.2243,0.2252,0.2245,0.2247,0.2255,0.2269,0.227,0.2271,0.2277,0.2278,0.2279,0.2279,0.2279,0.2388,0.239,0,0,0,0,0,0,0.2195,0.2193,0.2228,0.223,0.2217,0.2236,0.2239,0.2243,0.2252,0.2255,0.2255,0.2255,0.2268,0.227,0.2271,0.2337,0.2279,0.2279,0.2279,0.2385,0.2388,0.2391,0,0,0,0,0,0,0.2194,0.2197,0.2227,0.2215,0.2219,0.2237,0.2241,0.2244,0.2252,0.226,0.2262,0.2262,0.2269,0.2271,0.23,0.2336,0.2279,0.228,0.2382,0.2386,0.239,0.2427,0,0,0,0,0,0,0.2192,0.2197,0.2203,0.2215,0.222,0.2248,0.2242,0.2244,0.2258,0.2259,0.2267,0.2269,0.2269,0.2299,0.23,0.2335,0.228,0.2379,0.2384,0.2388,0.2423,0.2432,0.2439,0,0,0,0,0,0.219,0.2193,0.2203,0.2207,0.2227,0.2249,0.2252,0.2262,0.2258,0.2268,0.2283,0.2269,0.2331,0.2301,0.2302,0.2338,0.2376,0.2382,0.2388,0.2419,0.243,0.2439,0,0,0,0,0,0,0.218,0.2195,0.2205,0.2215,0.2239,0.2252,0.2267,0.2266,0.2283,0.2293,0.2286,0.229,0.2333,0.2335,0.2301,0.239,0.2358,0.2364,0.2381,0.2391,0.24,0.2424,0.2281,0,0,0,0,0,0.2181,0.2188,0.2209,0.2223,0.2238,0.2253,0.2263,0.2275,0.2292,0.2299,0.2303,0.2326,0.2357,0.2371,0.2394,0.2428,0.2439,0.246,0.2469,0.2476,0.25,0.2551,0.2566,0.241,0.241,0.241,0,0,0.2186,0.2194,0.2202,0.2222,0.2244,0.227,0.226,0.229,0.2315,0.2299,0.2334,0.235,0.2374,0.2422,0.2443,0.2426,0.2524,0.2483,0.2488,0.251,0.2559,0.2574,0.2587,0.2414,0.2413,0.2412,0,0,0.22,0.2209,0.2223,0.2242,0.2279,0.2292,0.2302,0.2325,0.2343,0.2381,0.2385,0.2424,0.2455,0.2485,0.2503,0.2573,0.2565,0.2586,0.2645,0.2693,0.2706,0.2718,0.2732,0.2745,0.2591,0.2591,0.2591,0,0.2215,0.2224,0.2234,0.2256,0.2281,0.2302,0.2335,0.2356,0.2385,0.2411,0.2406,0.249,0.2492,0.2567,0.2597,0.259,0.261,0.2594,0.2702,0.2714,0.2725,0.2737,0.2751,0.2593,0.2593,0.2593,0.2593,0,0.2232,0.2252,0.2268,0.2302,0.233,0.2363,0.24,0.2427,0.2452,0.2478,0.2557,0.258,0.2631,0.2644,0.2641,0.2732,0.2716,0.27,0.2668,0.2743,0.2751,0.2764,0.2597,0.2596,0.2595,0.2595,0,0,0.2237,0.2275,0.2279,0.2303,0.2359,0.2378,0.2439,0.2496,0.254,0.2587,0.2653,0.2716,0.2735,0.2761,0.2767,0.2818,0.2891,0.2802,0.2803,0.2802,0.2988,0.2931,0.2939,0.2897,0.29,0.2903,0.2953,0,0.2257,0.229,0.2312,0.2363,0.239,0.2436,0.249,0.2547,0.2601,0.2665,0.2724,0.2795,0.2778,0.2817,0.2863,0.2893,0.2933,0.2878,0.293,0.2931,0.286,0.2955,0.2735,0.276,0.2966,0.2968,0.297,0,0.2266,0.2282,0.2329,0.2393,0.2414,0.2452,0.2542,0.2596,0.2698,0.2753,0.2838,0.2876,0.2966,0.2938,0.3034,0.3003,0.3007,0.3022,0.3024,0.2974,0.2901,0.2726,0.2775,0.2991,0.299,0.2988,0.2987,0,0.2237,0.2296,0.2329,0.2348,0.2424,0.2465,0.252,0.2623,0.2682,0.2818,0.2876,0.2983,0.3045,0.3091,0.3109,0.3087,0.3202,0.3159,0.3109,0.3103,0.293,0.2904,0.3231,0.3231,0.3231,0.323,0.323,0,0.2235,0.2255,0.2316,0.2323,0.2385,0.2455,0.2537,0.2618,0.2737,0.2819,0.2917,0.3,0.3094,0.3152,0.3154,0.3178,0.3231,0.3151,0.3133,0.2935,0.291,0.3123,0.3109,0.3232,0.3232,0.3232,0.3231,0,0.2188,0.2231,0.2265,0.2338,0.2369,0.2415,0.253,0.2584,0.2718,0.2827,0.2878,0.3035,0.3134,0.3183,0.3268,0.3231,0.3258,0.3241,0.2991,0.2945,0.311,0.3099,0.3206,0.3205,0.3204,0.3203,0.3203,0,0.2164,0.2176,0.2249,0.2276,0.231,0.2383,0.2433,0.2568,0.2637,0.2837,0.2886,0.3033,0.3099,0.3199,0.3204,0.3209,0.3251,0.2995,0.2919,0.3147,0.3118,0.3108,0.3098,0.2688,0.2683,0.2679,0.2676,0,0.2112,0.2143,0.2165,0.2214,0.2265,0.232,0.241,0.2452,0.2616,0.27,0.283,0.2899,0.3033,0.2975,0.3012,0.2981,0.2981,0.2915,0.324,0.2735,0.2665,0.2634,0.264,0.2641,0.2644,0.2647,0.2649,0.265,0.2074,0.2075,0.2107,0.2151,0.2204,0.2245,0.225,0.2336,0.2408,0.2505,0.2666,0.2694,0.2776,0.273,0.266,0.2626,0.2825,0.2696,0.2705,0.272,0.2658,0.2591,0.2539,0.2542,0.2544,0.2547,0.2549,0,0.2002,0.2016,0.2043,0.2082,0.2078,0.2153,0.2214,0.2182,0.2195,0.2324,0.2388,0.2251,0.2241,0.2312,0.2219,0.2234,0.2181,0.2139,0.2049,0.2088,0.2123,0.2025,0.1741,0.1738,0.1735,0.1733,0,0,0.1969,0.195,0.1955,0.1936,0.1963,0.1924,0.1927,0.1912,0.1961,0.1933,0.195,0.2131,0.2256,0.1956,0.1942,0.1823,0.1927,0.1754,0.2414,0.235,0.2379,0.2475,0.2376,0,0,0,0,0]},{"header":{"parameterUnit":"m.s-1","parameterCategory":2,"la1":30.2991,"la2":30.254,"lo1":-89.0895,"lo2":-89.0444,"dy":0.0017,"dx":0.0017,"nx":28,"ny":28,"refTime":"2025-03-31T09:00:00:Z","depth":"2","parameterNumber":3,"parameterNumberName":"V-component_of_CURRENTS"},"data":[0,0,0,0,0,0,0,0,0,0,0,0,0,0,0,0,0,0,0,0,0,0,0,0,0,0,0,0,0,0,0,0,0,0,0,0,0,0,0,0,0,0,0,0,0,0,0,0,0,0,0,0,0,0,0,0,0,0,0.0026,0.0026,0,-0.0037,-0.0038,-0.0038,-0.0084,-0.0084,-0.0085,-0.0085,-0.016,-0.0161,-0.0163,0,0,0,0,0,0,0,0,0,0,0,0,0,0.0057,0.0057,0.0026,0.0026,0.0025,-0.0037,-0.0038,-0.0039,-0.0084,-0.0084,-0.0085,-0.0085,-0.0159,-0.0161,-0.0163,0,0,0,0,0,0,0,0,0,0,0,0,0,0.0023,0.0057,0.0026,-0.0005,-0.0008,-0.0037,-0.0038,-0.0039,-0.0084,-0.0084,-0.0085,-0.0085,-0.0159,-0.0161,-0.0164,-0.0169,0,0,-0.0171,-0.0172,0,0,0,0,0,0,0,0,0.0025,0.0022,0.0001,-0.0003,-0.0007,-0.0053,-0.0054,-0.0083,-0.0084,-0.0056,-0.0085,-0.0085,-0.0124,-0.013,-0.0141,-0.0173,-0.0176,-0.0171,-0.0173,-0.0174,-0.0175,0,0,0,0,0,0,0,0.0028,0.0024,0.0001,-0.0,-0.0005,-0.0033,-0.0038,-0.006,-0.0087,-0.0058,-0.0061,-0.0067,-0.0126,-0.0138,-0.0143,-0.0177,-0.0171,-0.0174,-0.0175,-0.0176,-0.0227,-0.0226,0,0,0,0,0,0,0.004,0.0027,0.0003,-0.0001,0.0009,-0.0033,-0.0039,-0.0038,-0.0087,-0.0094,-0.0067,-0.0069,-0.0134,-0.014,-0.0146,-0.0149,-0.0174,-0.0176,-0.0178,-0.0227,-0.0227,-0.0226,0,0,0,0,0,0,0.0041,0.0039,0.0005,0.0011,0.0005,-0.0032,-0.0032,-0.0039,-0.0051,-0.0093,-0.0101,-0.0071,-0.0135,-0.0142,-0.0164,-0.0153,-0.0178,-0.018,-0.0227,-0.0227,-0.0226,-0.016,0,0,0,0,0,0,0.0042,0.004,0.0044,0.0013,0.0005,-0.0004,-0.0031,-0.004,-0.0053,-0.0057,-0.0099,-0.0107,-0.0136,-0.016,-0.0167,-0.0157,-0.0182,-0.0227,-0.0227,-0.0227,-0.0163,-0.0158,-0.0154,0,0,0,0,0,0.0044,0.0056,0.0044,0.0041,0.0013,-0.0003,-0.0009,-0.0039,-0.0053,-0.0052,-0.0084,-0.0106,-0.0163,-0.0162,-0.017,-0.016,-0.0227,-0.0227,-0.0227,-0.0165,-0.0159,-0.0154,0,0,0,0,0,0,0.007,0.0051,0.0038,0.0043,0.0024,-0.001,-0.0014,-0.0033,-0.0058,-0.0064,-0.0104,-0.0113,-0.0129,-0.0155,-0.0153,-0.0175,-0.0199,-0.02,-0.0149,-0.0144,-0.0139,-0.0125,-0.0184,0,0,0,0,0,0.0079,0.0083,0.0057,0.006,0.0054,0.0021,0.001,-0.0009,-0.0035,-0.0047,-0.0076,-0.0109,-0.0133,-0.0146,-0.0173,-0.0183,-0.0203,-0.0183,-0.0178,-0.0174,-0.0168,-0.0187,-0.0183,-0.0225,-0.0225,-0.0225,0,0,0.0088,0.0079,0.008,0.0066,0.0047,0.0048,0.0013,0.0002,0.0002,-0.0051,-0.006,-0.0094,-0.0133,-0.0146,-0.0155,-0.0165,-0.0173,-0.0173,-0.0169,-0.0166,-0.0186,-0.0182,-0.0178,-0.0225,-0.0225,-0.0225,0,0,0.0113,0.0103,0.0114,0.0104,0.0084,0.0068,0.0069,0.0039,0.0025,0.0008,-0.0028,-0.0051,-0.0092,-0.0112,-0.013,-0.0115,-0.0149,-0.0129,-0.0091,-0.0109,-0.0105,-0.0102,-0.0118,-0.0117,-0.0124,-0.0124,-0.0124,0,0.0123,0.0136,0.0114,0.0122,0.012,0.0083,0.0095,0.0078,0.0045,0.0041,0.0013,-0.004,-0.0073,-0.0082,-0.0083,-0.0103,-0.0122,-0.0105,-0.0101,-0.0099,-0.0097,-0.0114,-0.0114,-0.0121,-0.0121,-0.0121,-0.0122,0,0.0156,0.0165,0.0171,0.0173,0.0169,0.0173,0.015,0.0143,0.0119,0.0101,0.0079,0.0027,-0.0001,-0.0018,-0.005,-0.005,-0.0071,-0.0093,-0.011,-0.0088,-0.0109,-0.0109,-0.0116,-0.0117,-0.0118,-0.0119,0,0,0.0185,0.0194,0.0196,0.0209,0.0197,0.0201,0.0204,0.0202,0.0215,0.0167,0.0177,0.0119,0.0089,0.0067,0.0025,0.0002,-0.0004,-0.0038,-0.0041,-0.0045,-0.0045,-0.0072,-0.0076,-0.0027,-0.0027,-0.0026,-0.0062,0,0.0217,0.0252,0.0244,0.0278,0.0294,0.0271,0.0281,0.0273,0.0257,0.0258,0.0201,0.0187,0.0123,0.0109,0.0078,0.002,-0.0005,0.0008,-0.0073,-0.0076,-0.0095,-0.0077,-0.0057,-0.0088,-0.0064,-0.0064,-0.0064,0,0.0253,0.0273,0.0311,0.0338,0.0343,0.0356,0.0376,0.0382,0.0372,0.0357,0.0329,0.0283,0.0245,0.0184,0.0098,0.0107,0.0037,-0.0016,-0.0019,-0.0068,-0.0104,-0.0109,-0.0092,-0.0066,-0.0066,-0.0066,-0.0065,0,0.0291,0.0323,0.0359,0.0366,0.0386,0.04,0.0412,0.0413,0.0438,0.0423,0.0435,0.0371,0.0352,0.0253,0.0134,0.0117,0.0037,0.0005,-0.0087,-0.0089,-0.01,-0.0103,-0.0058,-0.0057,-0.0057,-0.0057,-0.0057,0,0.0332,0.0362,0.0381,0.0402,0.0453,0.0447,0.0501,0.0501,0.052,0.0573,0.0492,0.051,0.0367,0.0298,0.0173,0.0046,0.0068,-0.0074,-0.0098,-0.0077,-0.0078,-0.0084,-0.0086,-0.0059,-0.0058,-0.0058,-0.0058,0,0.0367,0.0377,0.0424,0.0455,0.0472,0.0509,0.0568,0.061,0.0612,0.0678,0.0677,0.0626,0.0536,0.0381,0.0235,0.0113,-0.0018,-0.0073,-0.004,-0.006,-0.0143,-0.0141,-0.0169,-0.0171,-0.0172,-0.0172,-0.0173,0,0.0389,0.0414,0.0467,0.0506,0.0524,0.058,0.0627,0.0653,0.0713,0.0757,0.0801,0.073,0.0696,0.0461,0.0234,0.0015,-0.0018,-0.0115,-0.0148,-0.0133,-0.0153,-0.015,-0.0148,-0.0134,-0.0134,-0.0134,-0.0135,0,0.0432,0.0445,0.0485,0.0563,0.062,0.0695,0.0769,0.0833,0.0883,0.0933,0.0991,0.0963,0.0743,0.0525,0.0213,0.0064,-0.0081,-0.0128,-0.0109,-0.0112,-0.0103,-0.0122,-0.012,-0.0137,-0.0137,-0.0137,-0.0136,-0.0136,0.0465,0.0499,0.0551,0.0629,0.0701,0.0802,0.0878,0.0965,0.1066,0.1152,0.1129,0.1095,0.0839,0.0445,0.0174,-0.0104,-0.0093,-0.0193,-0.0191,-0.0188,-0.0181,-0.0175,-0.0221,-0.0221,-0.0221,-0.0221,-0.0221,0,0.0507,0.0548,0.062,0.0713,0.0801,0.0834,0.0971,0.1048,0.1176,0.1241,0.1273,0.1041,0.0782,0.049,0.0073,-0.0182,-0.0196,-0.0258,-0.022,-0.0215,-0.0212,-0.0205,-0.0252,-0.0253,-0.0254,-0.0254,0,0,0.0532,0.06,0.0635,0.078,0.0855,0.098,0.1064,0.1177,0.1253,0.1309,0.1298,0.1234,0.0881,0.0575,0.0225,-0.0013,-0.0053,-0.0058,-0.0006,0.0084,0.0091,-0.0148,-0.013,0,0,0,0,0]}],[{"header":{"parameterUnit":"m.s-1","parameterCategory":2,"la1":30.2991,"la2":30.254,"lo1":-89.0895,"lo2":-89.0444,"dy":0.0017,"dx":0.0017,"nx":28,"ny":28,"refTime":"2025-03-31T09:00:00:Z","depth":"4","parameterNumber":2,"parameterNumberName":"U-component_of_CURRENTS"},"data":[0,0,0,0,0,0,0,0,0,0,0,0,0,0,0,0,0,0,0,0,0,0,0,0,0,0,0,0,0,0,0,0,0,0,0,0,0,0,0,0,0,0,0,0,0,0,0,0,0,0,0,0,0,0,0,0,0,0,0.1368,0.1368,0,0.1432,0.1433,0.1434,0.1484,0.1485,0.1485,0.1486,0.1547,0.1548,0.1549,0,0,0,0,0,0,0,0,0,0,0,0,0,0.1269,0.1271,0.1367,0.1368,0.1369,0.1432,0.1433,0.1434,0.1484,0.1485,0.1485,0.1486,0.1547,0.1548,0.155,0,0,0,0,0,0,0,0,0,0,0,0,0,0.1319,0.1271,0.1367,0.1403,0.1407,0.1432,0.1433,0.1434,0.1484,0.1485,0.1486,0.1486,0.1547,0.1548,0.155,0.154,0,0,0.1555,0.1555,0,0,0,0,0,0,0,0,0.1316,0.1322,0.1397,0.1401,0.1405,0.1452,0.1421,0.147,0.1483,0.1453,0.1486,0.1487,0.1516,0.152,0.1528,0.1543,0.1546,0.1555,0.1556,0.1556,0.1557,0,0,0,0,0,0,0,0.1313,0.132,0.1392,0.1398,0.1403,0.141,0.1418,0.143,0.1477,0.1456,0.146,0.1469,0.1518,0.1526,0.1529,0.1547,0.1555,0.1556,0.1557,0.1558,0.1645,0.1646,0,0,0,0,0,0,0.1308,0.1317,0.139,0.1394,0.1364,0.1411,0.142,0.1435,0.1477,0.1485,0.1468,0.1471,0.1523,0.1528,0.1532,0.1598,0.1556,0.1558,0.1559,0.1644,0.1645,0.1647,0,0,0,0,0,0,0.1306,0.1314,0.1387,0.1357,0.1368,0.1412,0.1428,0.1436,0.1476,0.1487,0.1495,0.1504,0.1524,0.153,0.1566,0.1598,0.1558,0.156,0.1642,0.1644,0.1646,0.1683,0,0,0,0,0,0,0.1303,0.1313,0.1336,0.1357,0.1369,0.1419,0.1428,0.1436,0.1479,0.1484,0.1519,0.1524,0.1525,0.1564,0.1568,0.16,0.1561,0.164,0.1643,0.1645,0.168,0.1686,0.1691,0,0,0,0,0,0.1299,0.1319,0.1336,0.1346,0.1394,0.142,0.1427,0.1459,0.148,0.1499,0.1524,0.1525,0.1583,0.1566,0.157,0.1604,0.1639,0.1642,0.1645,0.1678,0.1685,0.1691,0,0,0,0,0,0,0.1287,0.1327,0.1346,0.1379,0.1407,0.1429,0.1456,0.1476,0.1511,0.1526,0.1537,0.1543,0.1589,0.159,0.1571,0.1637,0.1614,0.1618,0.1637,0.1644,0.165,0.1642,0.1562,0,0,0,0,0,0.1294,0.1324,0.1356,0.1385,0.1403,0.1436,0.1457,0.1479,0.1506,0.1524,0.1547,0.1574,0.16,0.1618,0.1636,0.1668,0.168,0.1695,0.17,0.1705,0.1703,0.1755,0.1766,0.1657,0.1657,0.1657,0,0,0.1295,0.1325,0.1341,0.1386,0.1414,0.1441,0.1452,0.1491,0.1518,0.1523,0.1574,0.1595,0.1613,0.1651,0.1672,0.166,0.1744,0.1709,0.1712,0.1708,0.176,0.177,0.178,0.1659,0.1659,0.1658,0,0,0.1303,0.1343,0.1369,0.1396,0.1444,0.1463,0.1481,0.152,0.1547,0.1591,0.1605,0.1641,0.1684,0.1697,0.171,0.1757,0.1772,0.1776,0.1798,0.185,0.1859,0.1867,0.19,0.1911,0.1778,0.1778,0.1778,0,0.1307,0.1345,0.1378,0.141,0.1438,0.1477,0.1505,0.1534,0.1579,0.1605,0.1616,0.1692,0.1702,0.1747,0.1763,0.1769,0.18,0.1769,0.1857,0.1865,0.1873,0.1905,0.1917,0.178,0.178,0.178,0.178,0,0.1326,0.1367,0.1386,0.1441,0.147,0.1505,0.1543,0.1581,0.1623,0.1652,0.1718,0.1738,0.1785,0.1797,0.1793,0.1857,0.1861,0.1858,0.1837,0.1886,0.1917,0.1928,0.1783,0.1783,0.1782,0.1781,0,0,0.1306,0.1385,0.1395,0.1428,0.1494,0.1516,0.1566,0.1619,0.1663,0.1714,0.1769,0.1812,0.1839,0.1854,0.1865,0.19,0.1975,0.1906,0.1908,0.1934,0.2092,0.1963,0.1962,0.2,0.2002,0.2004,0.2092,0,0.1316,0.1375,0.1413,0.1469,0.1502,0.1553,0.1596,0.1649,0.1703,0.1763,0.1803,0.1866,0.1859,0.1896,0.193,0.1969,0.2007,0.195,0.2044,0.2046,0.1922,0.1971,0.2011,0.2101,0.2103,0.2105,0.2107,0,0.132,0.1362,0.142,0.1494,0.1515,0.1555,0.1637,0.1682,0.1766,0.1812,0.1879,0.1919,0.1983,0.197,0.2066,0.204,0.2069,0.2089,0.2094,0.1964,0.1937,0.2042,0.2127,0.2125,0.2124,0.2122,0.2121,0,0.1283,0.1365,0.1414,0.1441,0.1527,0.1568,0.1621,0.1705,0.1754,0.1856,0.191,0.1989,0.2051,0.2102,0.2149,0.2128,0.2247,0.2222,0.2131,0.2122,0.2196,0.2186,0.2289,0.2289,0.2288,0.2288,0.2288,0,0.127,0.1311,0.1409,0.1434,0.1496,0.1565,0.1638,0.1702,0.1798,0.1854,0.1943,0.2,0.2095,0.2166,0.2186,0.2194,0.2288,0.2137,0.2138,0.2209,0.22,0.2204,0.2193,0.2292,0.2291,0.229,0.229,0,0.1218,0.1287,0.1344,0.1445,0.1482,0.1528,0.1642,0.1685,0.1799,0.1876,0.1917,0.2045,0.2135,0.2206,0.2297,0.2238,0.2259,0.2239,0.2318,0.2322,0.2087,0.2078,0.2133,0.2129,0.2126,0.2123,0.2121,0,0.1195,0.1224,0.1336,0.1369,0.1422,0.1503,0.1548,0.167,0.1716,0.1882,0.1906,0.2045,0.211,0.2139,0.2221,0.2255,0.2229,0.2221,0.213,0.2077,0.2073,0.2068,0.2063,0.2116,0.2115,0.2114,0.2113,0,0.1143,0.1196,0.1239,0.1308,0.1367,0.1418,0.1501,0.1529,0.1661,0.1783,0.1851,0.1902,0.1999,0.2061,0.2111,0.2126,0.2209,0.2186,0.2191,0.2106,0.2057,0.2055,0.2054,0.2102,0.2104,0.2105,0.2105,0,0.1101,0.1114,0.1177,0.1228,0.1293,0.1314,0.1369,0.1428,0.1496,0.1677,0.1701,0.1847,0.1978,0.1997,0.2043,0.205,0.2008,0.1927,0.1945,0.1958,0.1859,0.1769,0.1729,0,0,0,0,0,0.1055,0.1057,0.1091,0.1133,0.1188,0.1225,0.1324,0.1381,0.1518,0.1519,0.1605,0.1683,0.1754,0.1842,0.1814,0.1964,0.2013,0.1921,0.1928,0.204,0.2053,0.1951,0,0,0,0,0,0,0.1018,0.1048,0.1056,0.1042,0.1049,0.1092,0.1148,0.1236,0.1253,0.1404,0.1461,0.1573,0.1679,0.1751,0.1779,0.1802,0.177,0.2017,0.2013,0.2033,0.2044,0.2055,0.1954,0,0,0,0,0]},{"header":{"parameterUnit":"m.s-1","parameterCategory":2,"la1":30.2991,"la2":30.254,"lo1":-89.0895,"lo2":-89.0444,"dy":0.0017,"dx":0.0017,"nx":28,"ny":28,"refTime":"2025-03-31T09:00:00:Z","depth":"4","parameterNumber":3,"parameterNumberName":"V-component_of_CURRENTS"},"data":[0,0,0,0,0,0,0,0,0,0,0,0,0,0,0,0,0,0,0,0,0,0,0,0,0,0,0,0,0,0,0,0,0,0,0,0,0,0,0,0,0,0,0,0,0,0,0,0,0,0,0,0,0,0,0,0,0,0,0.0087,0.0087,0,0.0043,0.0042,0.0042,0.0003,0.0003,0.0002,0.0002,-0.0052,-0.0053,-0.0054,0,0,0,0,0,0,0,0,0,0,0,0,0,0.0107,0.0107,0.0087,0.0087,0.0086,0.0043,0.0042,0.0042,0.0003,0.0003,0.0002,0.0002,-0.0052,-0.0053,-0.0054,0,0,0,0,0,0,0,0,0,0,0,0,0,0.0084,0.0107,0.0087,0.0062,0.0059,0.0043,0.0042,0.0042,0.0003,0.0003,0.0002,0.0001,-0.0052,-0.0053,-0.0055,-0.0052,0,0,-0.0059,-0.006,0,0,0,0,0,0,0,0,0.0085,0.0083,0.0066,0.0063,0.006,0.0028,0.0029,0.001,0.0003,0.0024,0.0002,0.0001,-0.0026,-0.0029,-0.0037,-0.0054,-0.0057,-0.006,-0.0061,-0.0061,-0.0062,0,0,0,0,0,0,0,0.0087,0.0085,0.0069,0.0066,0.0062,0.0042,0.0038,0.0025,0.0003,0.0022,0.0019,0.0015,-0.0027,-0.0035,-0.0038,-0.0057,-0.006,-0.0061,-0.0062,-0.0063,-0.0057,-0.0056,0,0,0,0,0,0,0.0096,0.0087,0.0071,0.0068,0.0072,0.0042,0.0038,0.0039,0.0003,-0.0003,0.0016,0.0014,-0.0032,-0.0036,-0.004,-0.0021,-0.0061,-0.0063,-0.0064,-0.0059,-0.0057,-0.0056,0,0,0,0,0,0,0.0096,0.0095,0.0072,0.0076,0.0072,0.0043,0.0044,0.0038,0.0029,-0.0002,-0.0008,0.0012,-0.0033,-0.0038,-0.0045,-0.0024,-0.0063,-0.0065,-0.006,-0.0058,-0.0057,0.0006,0,0,0,0,0,0,0.0097,0.0095,0.01,0.0077,0.0072,0.007,0.0044,0.0038,0.0028,0.0025,-0.0006,-0.0012,-0.0034,-0.0043,-0.0047,-0.0027,-0.0066,-0.0061,-0.0059,-0.0057,0.0003,0.001,0.0016,0,0,0,0,0,0.0098,0.011,0.0101,0.0099,0.0079,0.0071,0.0067,0.0043,0.0029,0.0031,0.0011,-0.0011,-0.0033,-0.0043,-0.0048,-0.0028,-0.0062,-0.006,-0.0057,-0.0,0.0008,0.0016,0,0,0,0,0,0,0.0122,0.0107,0.0096,0.0103,0.009,0.0064,0.0065,0.0048,0.0033,0.003,-0.0002,-0.0009,-0.0007,-0.0024,-0.0035,-0.002,-0.0049,-0.0047,-0.0004,0.0004,0.001,0.0019,-0.0067,0,0,0,0,0,0.013,0.0135,0.0115,0.0121,0.0117,0.0091,0.0085,0.007,0.0053,0.0045,0.0023,0.0007,0.0,-0.0004,-0.0017,-0.0009,-0.0044,0.0002,0.0008,0.0014,0.0018,-0.0012,-0.0009,-0.0048,-0.0048,-0.0048,0,0,0.0141,0.0133,0.0135,0.0126,0.0114,0.0118,0.0086,0.0081,0.0086,0.0043,0.0044,0.0025,0.0006,0.0014,0.0014,0.0002,0.0007,0.0017,0.0022,0.0023,-0.001,-0.0006,-0.0003,-0.0046,-0.0047,-0.0047,0,0,0.0165,0.0159,0.0169,0.0164,0.015,0.0139,0.0141,0.0119,0.0111,0.011,0.0084,0.008,0.0063,0.0059,0.0054,0.009,0.0039,0.0086,0.0129,0.0099,0.0102,0.0104,0.0059,0.0056,0.0094,0.0094,0.0094,0,0.0177,0.0186,0.017,0.0179,0.018,0.0153,0.0165,0.0159,0.0138,0.0137,0.012,0.0104,0.0089,0.0102,0.0118,0.0106,0.0069,0.01,0.0107,0.0108,0.0109,0.0062,0.0058,0.0097,0.0097,0.0096,0.0096,0,0.0204,0.0213,0.0221,0.0225,0.0227,0.0233,0.0223,0.0223,0.021,0.02,0.0202,0.0179,0.0169,0.0171,0.0156,0.0165,0.0129,0.0114,0.0085,0.0116,0.0065,0.006,0.0102,0.0101,0.01,0.0099,0,0,0.0224,0.0237,0.0239,0.025,0.0251,0.0256,0.0272,0.0277,0.0288,0.0271,0.0277,0.0276,0.0254,0.0248,0.0227,0.0211,0.0189,0.0171,0.0168,0.0123,0.0104,0.0086,0.0078,0.0167,0.0167,0.0167,0.0063,0,0.0248,0.0275,0.0276,0.0307,0.0321,0.0313,0.0332,0.0335,0.0331,0.0332,0.0312,0.0311,0.0287,0.0282,0.0263,0.0206,0.0179,0.0217,0.0083,0.0079,0.0057,0.0074,0.0166,0.0059,0.0057,0.0057,0.0056,0,0.0269,0.0286,0.0319,0.0347,0.0353,0.0372,0.0394,0.0408,0.0408,0.0402,0.0395,0.0368,0.035,0.032,0.0236,0.0256,0.0188,0.014,0.0134,0.0093,0.0053,0.0022,0.0046,0.0047,0.0048,0.0048,0.0049,0,0.0284,0.0316,0.0345,0.0354,0.0382,0.04,0.0417,0.043,0.045,0.0446,0.0448,0.0413,0.0391,0.0313,0.0218,0.022,0.0108,0.0094,0.0011,0.0007,0.0025,0.0024,0.0029,0.003,0.003,0.003,0.003,0,0.0302,0.0326,0.0356,0.0372,0.0416,0.0425,0.047,0.0479,0.0497,0.0525,0.0485,0.0485,0.0388,0.0314,0.0222,0.0099,0.0104,0.0018,-0.0015,0.0053,0.0057,0.002,0.002,0.0026,0.0027,0.0028,0.0028,0,0.0309,0.0328,0.0366,0.0404,0.0424,0.0454,0.0512,0.0543,0.0549,0.058,0.0579,0.0532,0.0433,0.032,0.0184,0.0106,-0.0009,-0.0057,0.0015,-0.0013,-0.0095,-0.009,-0.0161,-0.0162,-0.0163,-0.0164,-0.0165,0,0.0315,0.0334,0.039,0.0423,0.0445,0.0496,0.0536,0.0568,0.0605,0.061,0.0624,0.0543,0.0492,0.0287,0.0162,-0.0031,-0.0054,-0.0123,-0.0093,-0.0087,-0.0112,-0.0106,-0.0099,-0.0167,-0.0167,-0.0167,-0.0168,0,0.0326,0.0346,0.0379,0.0445,0.0496,0.0557,0.0616,0.0647,0.068,0.0682,0.0662,0.0561,0.0442,0.0289,0.0134,0.0001,-0.0079,-0.0136,-0.0134,-0.0107,-0.0096,-0.0118,-0.011,-0.0172,-0.0171,-0.0171,-0.0171,0,0.0337,0.036,0.0407,0.0467,0.0533,0.06,0.0632,0.0674,0.0706,0.0712,0.0701,0.0576,0.0509,0.0303,0.0165,0.0027,-0.0005,-0.0045,-0.0048,-0.0045,0.0023,0.0057,0.0001,0,0,0,0,0,0.0345,0.0376,0.0431,0.05,0.0565,0.0607,0.068,0.0707,0.0736,0.073,0.0721,0.0612,0.0409,0.0324,0.0183,0.0131,-0.0039,-0.0041,-0.0088,-0.0194,-0.019,-0.0129,0,0,0,0,0,0,0.0353,0.0399,0.0427,0.0515,0.0566,0.0645,0.0692,0.0715,0.0716,0.072,0.0619,0.057,0.0374,0.0488,0.0177,0.0135,0.0084,-0.0134,-0.0137,-0.0197,-0.0193,-0.0189,-0.0125,0,0,0,0,0]}]]